This is the latest recevied weather packets stored in our database for station/object GOLDWX. If no packets are shown the sender has not sent any weather packets the latest 10 day(s).
| Time | Temp. | Humidity | Pressure | Rain* | Wind** | Luminosity | Snow |
|---|---|---|---|---|---|---|---|
| 1778183021 | 29.44° C | 12% | 1017.2 hPa | 0 mm | - | - | - |
| 1778182719 | 28.89° C | 12% | 1017.2 hPa | 0 mm | - | - | - |
| 1778182117 | 27.22° C | 12% | 1017.5 hPa | 0 mm | - | - | - |
| 1778181817 | 26.67° C | 12% | 1017.6 hPa | 0 mm | - | - | - |
| 1778181214 | 26.67° C | 13% | 1017.6 hPa | 0 mm | - | - | - |
| 1778180914 | 26.67° C | 13% | 1017.8 hPa | 0 mm | - | - | - |
| 1778180312 | 25.56° C | 14% | 1017.8 hPa | 0 mm | - | - | - |
| 1778180011 | 26.11° C | 13% | 1018 hPa | 0 mm | - | - | - |
| 1778179409 | 25.56° C | 15% | 1017.9 hPa | 0 mm | - | - | - |
| 1778179109 | 25.56° C | 14% | 1018 hPa | 0 mm | - | - | - |
| 1778178507 | 26.11° C | 15% | 1018 hPa | 0 mm | - | - | - |
| 1778178206 | 26.11° C | 15% | 1018.1 hPa | 0 mm | - | - | - |
| 1778177604 | 26.11° C | 15% | 1018.1 hPa | 0 mm | - | - | - |
| 1778177304 | 26.11° C | 15% | 1018.2 hPa | 0 mm | - | - | - |
| 1778176702 | 26.67° C | 15% | 1018.2 hPa | 0 mm | - | - | - |
| 1778176401 | 26.11° C | 17% | 1018.2 hPa | 0 mm | - | - | - |
| 1778175799 | 26.11° C | 17% | 1018.3 hPa | 0 mm | - | - | - |
| 1778175499 | 25.56° C | 16% | 1018.3 hPa | 0 mm | - | - | - |
| 1778174897 | 26.11° C | 17% | 1018.3 hPa | 0 mm | - | - | - |
| 1778174597 | 26.11° C | 18% | 1018.5 hPa | 0 mm | - | - | - |
| 1778173994 | 25° C | 19% | 1018.4 hPa | 0 mm | - | - | - |
| 1778173694 | 24.44° C | 19% | 1018.5 hPa | 0 mm | - | - | - |
| 1778173092 | 23.89° C | 19% | 1018.5 hPa | 0 mm | - | - | - |
| 1778172792 | 23.89° C | 19% | 1018.6 hPa | 0 mm | - | - | - |
| 1778172189 | 23.89° C | 20% | 1018.7 hPa | 0 mm | - | - | - |
* Rain since midnight (hover to see other rain measurements)
** Current wind speed in m/s (hover to see current wind gust speed)